Garden City, KS

3:10 PM CDT on April 27, 2017 (GMT -0500)
Garden City Regional

Weather History for KGCK - August, 2014

Change the Weather History Date:

Sunday, August 17, 2014

  Actual Average Record
Temperature  
Mean Temperature 80 °F 77 °F  
Max Temperature 98 °F 90 °F 108 °F (1978)
Min Temperature 61 °F 64 °F 53 °F (2012)
Degree Days  
Heating Degree Days 0 0  
Month to date heating degree days 0 0  
Since 1 June heating degree days 21 17  
Since 1 July heating degree days 10 1  
Cooling Degree Days 15 12  
Month to date cooling degree days 206 215  
Year to date cooling degree days 965 966  
Since 1 June cooling degree days 822 877  
Growing Degree Days 30 (Base 50)    
Moisture  
Dew Point 55 °F    
Average Humidity 56    
Maximum Humidity 90    
Minimum Humidity 21    
Precipitation  
Precipitation 0.01 in 0.08 in 1.27 in (1963)
Month to date precipitation 0.68 1.52  
Year to date precipitation 16.48 14.72  
Sea Level Pressure  
Sea Level Pressure 29.89 in    
Wind  
Wind Speed 9 mph (SSW)    
Max Wind Speed 30 mph    
Max Gust Speed 50 mph    
Visibility 10 miles    
Events Rain , Thunderstorm    
T = Trace of Precipitation, MM = Missing Value Source: NWS Daily Summary

Daily Weather History Graph

Daily Weather History Graph

Search for Another Location

Airport or City:

Trip Planner

Search our weather history database for the weather conditions in past years. The results will help you decide how hot, cold, wet, or windy it might be!

Date:

Astronomy

Aug. 17, 2014 Rise Set
Actual Time 6:59 AM CDT 8:33 PM CDT
Civil Twilight 6:32 AM CDT 9:01 PM CDT
Nautical Twilight 5:58 AM CDT 9:34 PM CDT
Astronomical Twilight 5:22 AM CDT 10:09 PM CDT
Moon 12:27 AM CDT (8/17) 2:39 PM CDT (8/17)
Length of Visible Light 14h 29m
Length of Day
13h 33m
Waning Gibbous, 48% of the Moon is Illuminated
Aug 17
Waning Gibbous
Aug 25
New
Sep 2
First Quarter
Sep 8
Full
Sep 15
Last Quarter

Hourly Weather History & Observations

Time (CDT) Temp. Heat Index Dew Point Humidity Pressure Visibility Wind Dir Wind Speed Gust Speed Precip Events Conditions
12:54 AM 72.0 °F - 59.0 °F 64% 29.90 in 10.0 mi West 3.5 mph - N/A   Clear
1:54 AM 71.1 °F - 57.0 °F 61% 29.89 in 10.0 mi Calm Calm - N/A   Clear
2:54 AM 71.1 °F - 57.0 °F 61% 29.90 in 10.0 mi Calm Calm - N/A   Clear
3:54 AM 69.1 °F - 57.9 °F 68% 29.90 in 10.0 mi Calm Calm - N/A   Clear
4:54 AM 63.0 °F - 59.0 °F 87% 29.90 in 10.0 mi South 5.8 mph - N/A   Clear
5:54 AM 63.0 °F - 57.9 °F 84% 29.90 in 10.0 mi WSW 4.6 mph - N/A   Clear
6:54 AM 64.0 °F - 57.9 °F 80% 29.91 in 10.0 mi South 3.5 mph - N/A   Clear
7:54 AM 66.0 °F - 59.0 °F 78% 29.94 in 10.0 mi SE 6.9 mph - N/A   Clear
8:54 AM 72.0 °F - 60.1 °F 66% 29.94 in 10.0 mi South 6.9 mph - N/A   Clear
9:54 AM 79.0 °F - 61.0 °F 54% 29.94 in 10.0 mi South 4.6 mph - N/A   Clear
10:54 AM 87.1 °F 86.7 °F 60.1 °F 40% 29.92 in 10.0 mi South 10.4 mph - N/A   Clear
11:54 AM 89.1 °F 88.0 °F 57.9 °F 35% 29.93 in 10.0 mi South 10.4 mph - N/A   Clear
12:54 PM 91.9 °F 90.8 °F 57.9 °F 32% 29.91 in 10.0 mi South 13.8 mph - N/A   Clear
1:54 PM 93.9 °F 92.2 °F 55.9 °F 28% 29.89 in 10.0 mi SSW 10.4 mph - N/A   Clear
2:54 PM 96.1 °F 94.5 °F 55.9 °F 26% 29.87 in 10.0 mi SSW 11.5 mph - N/A   Clear
3:54 PM 97.0 °F - 51.1 °F 21% 29.85 in 10.0 mi SSW 8.1 mph - N/A   Clear
4:54 PM 96.8 °F - 50.0 °F 20% 29.96 in 10.0 mi SSW 8.1 mph - N/A   Clear
5:54 PM 97.0 °F - 50.0 °F 20% 29.82 in 10.0 mi SSW 6.9 mph - N/A   Clear
6:54 PM 91.9 °F 89.5 °F 54.0 °F 27% 29.82 in 10.0 mi South 8.1 mph - N/A   Clear
7:54 PM 84.0 °F - 48.9 °F 29% 29.86 in 8.0 mi North 21.9 mph 33.4 mph 0.00 in Rain Light Rain
8:01 PM 82.9 °F - 52.0 °F 34% 29.95 in 10.0 mi North 18.4 mph 29.9 mph 0.00 in Rain , Thunderstorm Light Thunderstorms and Rain
8:16 PM 84.0 °F 82.6 °F 54.0 °F 35% 29.96 in 10.0 mi NE 4.6 mph - 0.00 in Thunderstorm Partly Cloudy
8:49 PM 84.2 °F - 48.2 °F 29% 29.95 in 10.0 mi SW 9.2 mph 17.3 mph N/A   Mostly Cloudy
8:54 PM 84.0 °F - 48.9 °F 29% 29.83 in 10.0 mi SSW 17.3 mph - 0.00 in   Mostly Cloudy
9:11 PM 81.0 °F - 52.0 °F 36% 29.91 in 10.0 mi South 26.5 mph 33.4 mph N/A   Mostly Cloudy
9:54 PM 81.0 °F - 50.0 °F 34% 29.83 in 10.0 mi SSW 13.8 mph 24.2 mph N/A   Clear
10:54 PM 79.0 °F - 51.1 °F 38% 29.83 in 10.0 mi SSE 5.8 mph - N/A   Clear
11:54 PM 78.1 °F - 51.1 °F 39% 29.83 in 10.0 mi SSE 4.6 mph - N/A   Clear